Location: ??????
(55.6361°N, 38.0803°E)
Time: 01:41:43
(UTC+00:00)

Cosmos 2219 Rocket - Pass Details

Date: 30 March 2020
Orbit: 829 x 845 km, 71.0° (Epoch: 27 May)

Event Time Altitude Azimuth Distance (km) Brightness Sun altitude
Rises 01:27:04 0° 322° (NW) 3,394 5.2 -13.7°
Reaches altitude 10° 01:29:48 10° 311° (NW) 2,453 4.4 -13.3°
Maximum altitude 01:34:30 28° 254° (WSW) 1,509 3.0 -12.7°
Drops below altitude 10° 01:39:11 10° 197° (SSW) 2,433 4.2 -12.1°
Sets 01:41:54 0° 186° (S) 3,361 5.0 -11.8°
